Regional Weather Roundup
Issued by NWS

Home | Current Version | Previous Version | Text Only | Print | Product List | Glossary Off
Versions: 1 2 3 4 5 6 7 8 9 10 11 12 13 14 15 16 17 18 19 20 21 22 23 24 25 26 27 28 29 30 31 32 33 34 35 36 37 38 39 40 41 42 43 44 45 46 47 48 49 50

851
ASUS43 KBIS 241510
RWRND

NORTH DAKOTA REGIONAL WEATHER ROUNDUP
NATIONAL WEATHER SERVICE BISMARCK ND
1000 AM CDT SAT JUN 24 2017

NOTE: "FAIR" INDICATES FEW OR NO CLOUDS BELOW 12,000 FEET WITH NO
SIGNIFICANT WEATHER AND/OR OBSTRUCTIONS TO VISIBILITY.


NDZ001>003-009>011-017-241600-
NORTHWEST NORTH DAKOTA

CITY           SKY/WX    TMP DP  RH WIND       PRES   REMARKS
WILLISTON      SUNNY     55  38  52 N20       30.28R
MINOT          CLOUDY    50  41  71 NW23G30   30.17R
MINOT AFB      CLOUDY    50  41  71 NW20G30   30.16R
$$

NDZ018>021-031>035-040>046-241600-
SOUTHWEST NORTH DAKOTA

CITY           SKY/WX    TMP DP  RH WIND       PRES   REMARKS
BISMARCK       CLOUDY    55  39  54 N15G25    30.18R
DICKINSON      SUNNY     55  31  39 NW22G32   30.22R
GARRISON         N/A     50  39  66 NW17G30   30.19R
HETTINGER ARPT SUNNY     59  33  37 N18       30.25R
$$

NDZ004>008-012>016-024-026-027-054-241600-
NORTHEAST NORTH DAKOTA

CITY           SKY/WX    TMP DP  RH WIND       PRES   REMARKS
GRAND FORKS    PTSUNNY   56  45  66 NW15      30.00S
GRND FRKS AFB  PTSUNNY   57  45  64 NW15      30.01R
DEVILS LAKE    CLOUDY    53  42  66 NW22      30.07R
$$

NDZ022-023-025-028>030-036>039-047>053-241600-
SOUTHEAST NORTH DAKOTA

CITY           SKY/WX    TMP DP  RH WIND       PRES   REMARKS
FARGO          CLOUDY    56  48  74 NW10      30.03R
JAMESTOWN      PTSUNNY   54  41  61 NW20G30   30.08R
$$





USA.gov is the U.S. government's official web portal to all federal, state and local government web resources and services.